Pavlodar, Kazakhstan

7:59 PM ALMT on March 02, 2015 (GMT +0600)
Pavlodar | Change Station
CLOSE
Current Station
Airport
Location: Pavlodar,
Elevation: 410 ft
Nearby Weather Stations

Elev 410 ft 52.19 °N, 77.07 °E | Updated 29 minutes ago

Clear
Clear
18 °F
Feels Like 11 °F
N
4
Wind Variable Wind from East

Today
High -- | Low -- °F
--% Chance of Precip.
Yesterday
High -- | Low -- °F
Precip. -- in
7:36 AM 6:31 PM
Waxing Gibbous, 91% visible
Pressure 30.51 in
Visibility -9999.0 miles
Clouds
Windchill 11 °F
Dew Point 12 °F
Humidity 79%
Rainfall 0.00 in
Snow Depth Not available.
UV Not available.
Pollen Not available.
Air Quality Not available.
Flu Activity Not available.
METAR UASP 021330Z 08002MPS CAVOK M08/M11 Q1033 R21/0///60 NOSIG RMK QFE763/1018

More Conditions Fewer Conditions

Pressure 30.51 in
Visibility -9999.0 miles
Clouds
Windchill 11 °F
Dew Point 12 °F
Humidity 79%
Rainfall 0.00 in
Snow Depth Not available.
UV Not available.
Pollen Not available.
Air Quality Not available.
Flu Activity Not available.
METAR UASP 021330Z 08002MPS CAVOK M08/M11 Q1033 R21/0///60 NOSIG RMK QFE763/1018

More Conditions Fewer Conditions

10-Day Weather Forecast

Almanac

Astronomy

Mar. 02, 2015 Rise Set
Actual Time
Civil Twilight
Nautical Twilight
Astronomical Twilight
Moon
Length of Visible Light
Length of Day
Tomorrow will be .
, % of the Moon is Illuminated

Today's Extremes

Country Highs Country Lows

Community

WunderPhotos

Upload Photos

1,801,784 photos uploaded!

WunderBlogs® & News

Nearby

Air Quality

  Air Quality AQ Index Pollutant
Not available.

Snow Depth

Station Depth Elevation

Earthquake Activity

City Distance Mag. Time & Date
Minimum magnitude displayed is 2.5.

Coastal Water Temperatures

Place Temperature

Nearby Weather Stations